Tracking 29591 objects as of 19-Sep-2024
HD Live streaming from Space Station
objects crossing your sky now

COSMOS 2491 DEB

Track COSMOS 2491 DEB now!
10-day predictions


NORAD ID: 57550
Int'l Code: 2013-076AM
Perigee: 1,310.9 km
Apogee: 1,470.1 km
Inclination: 82.5 °
Period: 113.4 minutes
Semi major axis: 7761 km
RCS: Unknown
Launch date: December 25, 2013
Source: Commonwealth of Independent States (former USSR) (CIS)
Launch site: PLESETSK MISSILE AND SPACE COMPLEX (PKMTR)

Note: This is SATELLITE DEBRIS
Your satellite tracking list
Your tracking list is empty




NASA's NSSDC Master Catalog

Two Line Element Set (TLE):
1 57550U 13076AM  24252.50148730  .00007257  00000-0  35917-1 0  9999
2 57550  82.4571 165.3979 0102573 141.8074 219.0347 12.69658143 61811
Source of the keplerian elements: AFSPC